Akron, OH

5:34 AM EDT on April 25, 2018 (GMT -0400)
Akron Fulton International

Weather History for KAKR - June, 2013

Change the Weather History Date:

Wednesday, June 26, 2013

  Actual Average (KCAK) Record (KCAK)
Temperature  
Mean Temperature 74 °F -  
Max Temperature 82 °F 80 °F 100 °F (1952)
Min Temperature 66 °F 59 °F 46 °F (1955)
Cooling Degree Days 8    
Growing Degree Days 24 (Base 50)    
Moisture  
Dew Point 67 °F    
Average Humidity 82    
Maximum Humidity 97    
Minimum Humidity 65    
Precipitation  
Precipitation 0.78 in - - ()
Sea Level Pressure  
Sea Level Pressure 29.88 in    
Wind  
Wind Speed 6 mph (SSW)    
Max Wind Speed 14 mph    
Max Gust Speed 18 mph    
Visibility 9 miles    
Events Rain    
Averages and records for this station are not official NWS values.
T = Trace of Precipitation, MM = Missing Value Source: NWS Daily Summary

Daily Weather History Graph

Daily Weather History Graph

Search for Another Location

Airport or City:

Astronomy

Jun. 26, 2013 Rise Set
Actual Time 5:55 AM EDT 9:02 PM EDT
Civil Twilight 5:21 AM EDT 9:35 PM EDT
Nautical Twilight 4:38 AM EDT 10:18 PM EDT
Astronomical Twilight 3:47 AM EDT 11:09 PM EDT
Moon 11:22 PM EDT (6/26) 9:47 AM EDT (6/26)
Length of Visible Light 16h 14m
Length of Day
15h 06m
Waning Gibbous, 85% of the Moon is Illuminated
Jun 26
Waning Gibbous
Jun 30
Last Quarter
Jul 8
New
Jul 15
First Quarter
Jul 22
Full

Hourly Weather History & Observations

Time (EDT) Temp. Heat Index Dew Point Humidity Pressure Visibility Wind Dir Wind Speed Gust Speed Precip Events Conditions
12:05 AM 68.0 °F - 64.4 °F 88% 29.98 in 8.0 mi Variable 4.6 mph - 0.03 in Rain Light Rain
12:10 AM 69.8 °F - 64.4 °F 83% 29.97 in 1.8 mi Variable 5.8 mph - 0.20 in Rain Heavy Rain
12:22 AM 66.2 °F - 64.4 °F 94% 29.96 in 2.0 mi SSE 6.9 mph - 0.33 in Rain Heavy Rain
12:31 AM 66.2 °F - 64.4 °F 94% 29.95 in 6.0 mi SSE 5.8 mph - 0.34 in Rain Light Rain
12:54 AM 66.9 °F - 64.9 °F 93% 29.91 in 10.0 mi Variable 3.5 mph - 0.35 in Rain Light Rain
1:54 AM 66.9 °F - 64.9 °F 93% 29.89 in 5.0 mi SSE 8.1 mph - 0.14 in Rain Light Rain
2:54 AM 66.9 °F - 64.9 °F 93% 29.93 in 5.0 mi SSW 12.7 mph - 0.04 in Rain Rain
3:54 AM 66.9 °F - 66.0 °F 97% 29.92 in 6.0 mi SW 8.1 mph - 0.10 in Rain Light Rain
4:54 AM 66.9 °F - 66.0 °F 97% 29.89 in 6.0 mi SSE 4.6 mph - 0.10 in Rain Light Rain
5:54 AM 66.9 °F - 64.9 °F 93% 29.87 in 10.0 mi South 4.6 mph - 0.02 in   Clear
6:54 AM 66.9 °F - 64.9 °F 93% 29.87 in 10.0 mi Calm Calm - N/A   Partly Cloudy
7:40 AM 66.2 °F - 64.4 °F 94% 29.91 in 10.0 mi SW 13.8 mph - N/A   Overcast
7:52 AM 68.0 °F - 64.4 °F 88% 29.91 in 10.0 mi SW 12.7 mph - N/A   Overcast
7:54 AM 68.0 °F - 64.9 °F 90% 29.89 in 10.0 mi SW 11.5 mph - N/A   Overcast
8:54 AM 69.1 °F - 66.0 °F 90% 29.90 in 10.0 mi West 4.6 mph - N/A   Overcast
9:54 AM 71.1 °F - 66.0 °F 84% 29.89 in 10.0 mi SW 8.1 mph - N/A   Overcast
10:54 AM 73.9 °F - 66.0 °F 76% 29.88 in 10.0 mi WSW 5.8 mph - N/A   Overcast
11:54 AM 75.9 °F - 66.9 °F 74% 29.89 in 10.0 mi WSW 3.5 mph - N/A   Mostly Cloudy
12:36 PM 78.8 °F - 66.2 °F 65% 29.91 in 10.0 mi WSW 6.9 mph - N/A   Mostly Cloudy
12:54 PM 78.1 °F - 66.0 °F 66% 29.89 in 10.0 mi West 5.8 mph - N/A   Mostly Cloudy
1:03 PM 77.0 °F - 66.2 °F 69% 29.92 in 10.0 mi SW 8.1 mph - N/A   Mostly Cloudy
1:17 PM 77.0 °F - 66.2 °F 69% 29.91 in 10.0 mi West 6.9 mph - N/A   Overcast
1:54 PM 77.0 °F - 66.0 °F 69% 29.88 in 10.0 mi West 6.9 mph - N/A   Overcast
2:42 PM 75.2 °F - 69.8 °F 83% 29.89 in 10.0 mi ESE 3.5 mph - 0.03 in   Overcast
2:54 PM 75.9 °F - 69.1 °F 79% 29.86 in 10.0 mi South 4.6 mph - 0.03 in   Overcast
3:28 PM 75.2 °F - 69.8 °F 83% 29.88 in 10.0 mi SW 4.6 mph - N/A   Overcast
3:54 PM 78.1 °F - 70.0 °F 76% 29.85 in 10.0 mi East 4.6 mph - 0.00 in   Overcast
4:33 PM 80.6 °F 84.6 °F 71.6 °F 74% 29.86 in 10.0 mi East 4.6 mph - N/A   Mostly Cloudy
4:54 PM 81.0 °F 85.2 °F 72.0 °F 74% 29.83 in 10.0 mi South 6.9 mph - N/A   Mostly Cloudy
5:54 PM 80.1 °F 83.2 °F 70.0 °F 71% 29.81 in 10.0 mi Variable 3.5 mph - N/A   Mostly Cloudy
6:54 PM 81.0 °F 84.4 °F 70.0 °F 69% 29.80 in 10.0 mi SSW 4.6 mph - N/A   Mostly Cloudy
7:54 PM 78.1 °F - 68.0 °F 71% 29.80 in 10.0 mi SSW 5.8 mph - N/A   Clear
8:54 PM 75.9 °F - 69.1 °F 79% 29.80 in 10.0 mi South 5.8 mph - N/A   Clear
9:54 PM 75.9 °F - 69.1 °F 79% 29.80 in 10.0 mi SSE 4.6 mph - N/A   Partly Cloudy
10:54 PM 75.9 °F - 68.0 °F 76% 29.81 in 10.0 mi SW 9.2 mph - N/A   Overcast
11:09 PM 73.4 °F - 66.2 °F 78% 29.83 in 10.0 mi SW 11.5 mph 18.4 mph N/A   Overcast
11:31 PM 73.4 °F - 66.2 °F 78% 29.82 in 10.0 mi SW 5.8 mph - N/A   Scattered Clouds
11:54 PM 72.0 °F - 64.9 °F 78% 29.79 in 10.0 mi SSW 6.9 mph - N/A   Partly Cloudy